timestamp,surface_pressure_avg,surface_temp_avg,battery_voltage,lat,long
2021-03-23 00:09:01+00:00,220.3081,1.95,12.89,47.84626,-54.09684
2021-03-23 00:19:01+00:00,223.6298,1.94,12.65,47.84626,-54.09684
2021-03-23 00:29:01+00:00,225.3548,1.96,12.65,47.84626,-54.09684
2021-03-23 00:39:01+00:00,225.9398,1.95,12.65,47.84626,-54.09684
2021-03-23 00:49:01+00:00,228.7498,2.0,12.65,47.84626,-54.09684
2021-03-23 00:59:01+00:00,231.2281,1.9,12.65,47.84626,-54.09684
2021-03-23 01:09:01+00:00,228.1864,1.9,12.65,47.84626,-54.09684
2021-03-23 01:19:01+00:00,228.0314,1.84,12.65,47.84626,-54.09684
2021-03-23 01:29:01+00:00,232.2931,1.88,12.65,47.84626,-54.09684
2021-03-23 01:39:01+00:00,233.7564,1.88,12.65,47.84626,-54.09684
2021-03-23 01:49:01+00:00,230.7215,1.9,12.65,47.84626,-54.09684
2021-03-23 01:59:01+00:00,233.4247,1.99,12.65,47.84626,-54.09684
2021-03-23 02:09:01+00:00,237.5714,2.1,12.65,47.84626,-54.09684
2021-03-23 02:19:01+00:00,240.0781,2.09,12.65,47.84626,-54.09684
2021-03-23 02:29:01+00:00,241.1531,2.1,12.65,47.84626,-54.09684
2021-03-23 02:39:01+00:00,243.8747,2.0,12.65,47.84626,-54.09684
2021-03-23 02:49:01+00:00,244.6081,1.99,12.65,47.84626,-54.09684
2021-03-23 02:59:01+00:00,246.8097,1.93,12.65,47.84626,-54.09684
2021-03-23 03:09:01+00:00,250.1931,1.9,12.65,47.84626,-54.09684
2021-03-23 03:19:01+00:00,254.1964,1.9,12.57,47.84626,-54.09684
2021-03-23 03:29:01+00:00,256.3914,1.84,12.57,47.84626,-54.09684
2021-03-23 03:39:01+00:00,260.5014,1.87,12.57,47.84626,-54.09684
2021-03-23 03:49:01+00:00,263.8881,1.87,12.57,47.84626,-54.09684
2021-03-23 03:59:01+00:00,267.1614,1.82,12.57,47.84626,-54.09684
2021-03-23 04:09:01+00:00,270.3747,1.8,12.57,47.84626,-54.09684
2021-03-23 04:19:01+00:00,276.7681,1.8,12.57,47.84626,-54.09684
2021-03-23 04:29:01+00:00,282.2764,1.8,12.57,47.84626,-54.09684
2021-03-23 04:39:01+00:00,283.6114,1.8,12.57,47.84626,-54.09684
2021-03-23 04:49:01+00:00,284.6214,1.8,12.57,47.84626,-54.09684
2021-03-23 04:59:01+00:00,289.4564,1.83,12.57,47.84626,-54.09684
2021-03-23 05:09:01+00:00,294.6931,1.89,12.57,47.84626,-54.09684
2021-03-23 05:19:01+00:00,295.7181,1.81,12.57,47.84626,-54.09684
2021-03-23 05:29:01+00:00,296.658,1.8,12.57,47.84626,-54.09684
2021-03-23 05:39:01+00:00,302.7347,1.8,12.57,47.84626,-54.09684
2021-03-23 05:49:01+00:00,306.158,1.9,12.57,47.84626,-54.09684
2021-03-23 05:59:01+00:00,306.0413,1.9,12.57,47.84626,-54.09684
2021-03-23 06:09:01+00:00,308.1614,1.89,12.57,47.84626,-54.09684
2021-03-23 06:19:01+00:00,310.5696,2.09,12.57,47.84626,-54.09684
2021-03-23 06:29:01+00:00,310.698,2.05,12.57,47.84626,-54.09684
2021-03-23 06:39:01+00:00,312.5497,2.1,12.57,47.84626,-54.09684
2021-03-23 06:49:01+00:00,314.198,2.1,12.57,47.84626,-54.09684
2021-03-23 06:59:01+00:00,313.5913,2.1,12.57,47.84626,-54.09684
2021-03-23 07:09:01+00:00,312.5897,2.11,12.57,47.84626,-54.09684
2021-03-23 07:19:01+00:00,313.5764,2.19,12.57,47.84626,-54.09684
2021-03-23 07:29:01+00:00,315.1813,2.18,12.57,47.84626,-54.09684
2021-03-23 07:39:01+00:00,312.9597,2.19,12.57,47.84626,-54.09684
2021-03-23 07:49:01+00:00,312.4363,2.1,12.57,47.84626,-54.09684
2021-03-23 07:59:01+00:00,310.1614,2.0,12.57,47.84626,-54.09684
2021-03-23 08:09:01+00:00,307.8198,1.9,12.57,47.84626,-54.09684
2021-03-23 08:19:01+00:00,305.4647,1.9,12.57,47.84626,-54.09684
2021-03-23 08:29:01+00:00,304.6846,2.0,12.57,47.84626,-54.09684
2021-03-23 08:39:01+00:00,302.233,2.08,12.57,47.84626,-54.09684
2021-03-23 08:49:01+00:00,296.5831,2.14,12.57,47.84626,-54.09684
2021-03-23 08:59:01+00:00,293.7996,2.22,12.57,47.84626,-54.09684
2021-03-23 09:09:01+00:00,290.1247,2.34,12.57,47.84626,-54.09684
2021-03-23 09:19:01+00:00,287.828,2.3,12.57,47.84626,-54.09684
2021-03-23 09:29:01+00:00,282.7597,2.29,12.57,47.84626,-54.09684
2021-03-23 09:39:01+00:00,278.3647,2.55,12.57,47.84626,-54.09684
2021-03-23 09:49:01+00:00,273.6381,2.11,12.57,47.84626,-54.09684
2021-03-23 09:59:01+00:00,268.9131,2.26,12.57,47.84626,-54.09684
2021-03-23 10:09:01+00:00,264.5265,2.49,12.57,47.84626,-54.09684
2021-03-23 10:19:01+00:00,260.9847,2.56,12.97,47.84626,-54.09684
2021-03-23 10:29:01+00:00,256.8297,2.6,12.97,47.84626,-54.09684
2021-03-23 10:39:01+00:00,254.5014,2.5,12.97,47.84626,-54.09684
2021-03-23 10:49:01+00:00,252.3397,2.3,12.97,47.84626,-54.09684
2021-03-23 10:59:01+00:00,248.1431,2.34,12.97,47.84626,-54.09684
2021-03-23 11:09:01+00:00,245.6231,2.5,12.97,47.84626,-54.09684
2021-03-23 11:19:01+00:00,244.4398,2.6,14.48,47.84626,-54.09684
2021-03-23 11:29:01+00:00,243.7631,2.6,14.48,47.84626,-54.09684
2021-03-23 11:39:01+00:00,242.4597,2.6,14.48,47.84626,-54.09684
2021-03-23 11:49:01+00:00,241.9764,2.5,14.48,47.84626,-54.09684
2021-03-23 11:59:01+00:00,241.6348,2.5,14.48,47.84626,-54.09684
2021-03-23 12:09:01+00:00,240.5815,2.4,14.48,47.84626,-54.09684
2021-03-23 12:19:01+00:00,241.8247,2.4,14.72,47.84626,-54.09684
2021-03-23 12:29:01+00:00,242.5481,2.4,14.72,47.84626,-54.09684
2021-03-23 12:39:01+00:00,240.0614,2.4,14.72,47.84626,-54.09684
2021-03-23 12:49:01+00:00,237.1331,2.56,14.72,47.84626,-54.09684
2021-03-23 12:59:01+00:00,238.1348,2.6,14.72,47.84626,-54.09684
2021-03-23 13:09:01+00:00,238.3698,2.4,14.72,47.84626,-54.09684
2021-03-23 13:19:01+00:00,236.5448,2.3,14.72,47.84626,-54.09684
2021-03-23 13:29:01+00:00,236.2731,2.3,14.72,47.84626,-54.09684
2021-03-23 13:39:01+00:00,238.2798,2.4,14.72,47.84626,-54.09684
2021-03-23 13:49:01+00:00,238.0197,2.52,14.72,47.84626,-54.09684
2021-03-23 13:59:01+00:00,232.7398,2.5,14.72,47.84626,-54.09684
2021-03-23 14:09:01+00:00,231.6631,2.4,14.72,47.84626,-54.09684
2021-03-23 14:19:01+00:00,235.0698,2.48,14.64,47.84626,-54.09684
2021-03-23 14:29:01+00:00,233.4098,2.5,14.64,47.84626,-54.09684
2021-03-23 14:39:01+00:00,229.7848,2.4,14.64,47.84626,-54.09684
2021-03-23 14:49:01+00:00,231.1247,2.4,14.64,47.84626,-54.09684
2021-03-23 14:59:01+00:00,233.7531,2.5,14.64,47.84626,-54.09684
2021-03-23 15:09:01+00:00,230.5181,2.64,14.64,47.84626,-54.09684
2021-03-23 15:19:01+00:00,228.0764,2.7,14.56,47.84626,-54.09684
2021-03-23 15:29:01+00:00,232.9464,2.7,14.56,47.84626,-54.09684
2021-03-23 15:39:01+00:00,237.8814,2.69,14.56,47.84626,-54.09684
2021-03-23 15:49:01+00:00,235.7714,2.6,14.56,47.84626,-54.09684
2021-03-23 15:59:01+00:00,235.5314,2.68,14.56,47.84626,-54.09684
2021-03-23 16:09:01+00:00,243.1131,2.7,14.56,47.84626,-54.09684
2021-03-23 16:19:01+00:00,247.7214,2.6,14.4,47.84626,-54.09684
2021-03-23 16:29:01+00:00,246.1864,2.4,14.4,47.84626,-54.09684
2021-03-23 16:39:01+00:00,250.1865,2.5,14.4,47.84626,-54.09684
2021-03-23 16:49:01+00:00,258.3631,2.61,14.4,47.84626,-54.09684
2021-03-23 16:59:01+00:00,259.4831,2.5,14.4,47.84626,-54.09684
2021-03-23 17:09:01+00:00,259.8814,2.29,14.4,47.84626,-54.09684
2021-03-23 17:19:01+00:00,267.4647,2.3,14.32,47.84626,-54.09684
2021-03-23 17:29:01+00:00,270.8081,2.3,14.32,47.84626,-54.09684
2021-03-23 17:39:01+00:00,269.6848,2.1,14.32,47.84626,-54.09684
2021-03-23 17:49:01+00:00,272.8014,2.06,14.32,47.84626,-54.09684
2021-03-23 17:59:01+00:00,278.9531,2.3,14.32,47.84626,-54.09684
2021-03-23 18:09:01+00:00,280.233,2.45,14.32,47.84626,-54.09684
2021-03-23 18:19:01+00:00,281.363,2.5,14.16,47.84626,-54.09684
2021-03-23 18:29:01+00:00,283.0697,2.6,14.16,47.84626,-54.09684
2021-03-23 18:39:01+00:00,285.7881,2.6,14.16,47.84626,-54.09684
2021-03-23 18:49:01+00:00,287.4414,2.67,14.16,47.84626,-54.09684
2021-03-23 18:59:01+00:00,289.83299999999997,2.4,14.16,47.84626,-54.09684
2021-03-23 19:09:01+00:00,293.0213,2.52,14.16,47.84626,-54.09684
2021-03-23 19:19:01+00:00,294.908,2.55,13.92,47.84626,-54.09684
2021-03-23 19:29:01+00:00,293.6146,2.47,13.92,47.84626,-54.09684
2021-03-23 19:39:01+00:00,290.7847,2.42,13.92,47.84626,-54.09684
2021-03-23 19:49:01+00:00,288.8781,2.6,13.92,47.84626,-54.09684
2021-03-23 19:59:01+00:00,288.4697,2.51,13.92,47.84626,-54.09684
2021-03-23 20:09:01+00:00,286.9164,2.58,13.92,47.84626,-54.09684
2021-03-23 20:19:01+00:00,284.313,2.6,13.68,47.84626,-54.09684
2021-03-23 20:29:01+00:00,281.1431,2.6,13.68,47.84626,-54.09684
2021-03-23 20:39:01+00:00,280.7814,2.6,13.68,47.84626,-54.09684
2021-03-23 20:49:01+00:00,278.7347,2.61,13.68,47.84626,-54.09684
2021-03-23 20:59:01+00:00,272.9147,2.65,13.68,47.84626,-54.09684
2021-03-23 21:09:01+00:00,269.5597,2.64,13.68,47.84626,-54.09684
2021-03-23 21:19:01+00:00,270.2414,2.6,13.44,47.84626,-54.09684
2021-03-23 21:29:01+00:00,266.9564,2.63,13.44,47.84626,-54.09684
2021-03-23 21:39:01+00:00,261.7697,2.66,13.44,47.84626,-54.09684
2021-03-23 21:49:01+00:00,259.6581,2.68,13.44,47.84626,-54.09684
2021-03-23 21:59:01+00:00,256.8231,2.7,13.44,47.84626,-54.09684
2021-03-23 22:09:01+00:00,253.3164,2.7,13.44,47.84626,-54.09684
2021-03-23 22:19:01+00:00,249.9964,2.7,13.13,47.84626,-54.09684
2021-03-23 22:29:01+00:00,249.3731,2.75,13.13,47.84626,-54.09684
2021-03-23 22:39:01+00:00,245.5614,2.8,13.13,47.84626,-54.09684
2021-03-23 22:49:01+00:00,243.8565,2.77,13.13,47.84626,-54.09684
2021-03-23 22:59:01+00:00,241.0997,3.04,13.13,47.84626,-54.09684
2021-03-23 23:09:01+00:00,237.9731,3.2,13.13,47.84626,-54.09684
2021-03-23 23:19:01+00:00,235.2314,3.04,12.81,47.84626,-54.09684
2021-03-23 23:29:01+00:00,235.0731,3.0,12.81,47.84626,-54.09684
2021-03-23 23:39:01+00:00,232.9514,2.4,12.81,47.84626,-54.09684
2021-03-23 23:49:01+00:00,230.3047,2.35,12.81,47.84626,-54.09684
2021-03-23 23:59:01+00:00,229.0814,2.3,12.81,47.84626,-54.09684
